WX4FUN-W Weather Reports


Display with metric or nautical units.
time (UTC)temp
F
wind
direction
speed
MPH
gust
MPH
rain 1hr
in
rain 24hr
in
rain mn
in
humidity
%
barometer
mb
20201125012859 32 269 0.0 3.0 0.00 0.00 0.00 75 1028.9
20201125012354 32 269 0.0 3.0 0.00 0.00 0.00 74 1028.6
20201125011850 32 149 0.0 2.0 0.00 0.00 0.00 73 1028.6
20201125011348 33 148 0.0 2.0 0.00 0.00 0.00 72 1028.6
20201125010844 33 148 0.0 0.0 0.00 0.00 0.00 72 1028.6
20201125010332 33 149 0.0 2.0 0.00 0.00 0.00 72 1028.6
20201125005834 33 148 1.0 3.0 0.00 0.00 0.00 71 1028.5
20201125005327 33 147 1.0 3.0 0.00 0.00 0.00 70 1028.5
20201125004816 33 321 1.0 3.0 0.00 0.00 0.00 69 1028.5
20201125004308 34 322 1.0 2.0 0.00 0.00 0.00 69 1028.4
20201125003809 34 322 0.0 2.0 0.00 0.00 0.00 68 1028.4
20201125003307 34 321 0.0 2.0 0.00 0.00 0.00 67 1028.4
20201125002814 35 322 0.0 2.0 0.00 0.00 0.00 67 1028.3
20201125002315 35 321 0.0 2.0 0.00 0.00 0.00 65 1028.3
20201125001809 35 322 0.0 2.0 0.00 0.00 0.00 65 1028.3
20201125001311 36 322 0.0 2.0 0.00 0.00 0.00 63 1028.0
20201125000804 36 321 0.0 2.0 0.00 0.00 0.00 63 1028.0
20201125000315 37 321 0.0 2.0 0.00 0.00 0.00 61 1028.0
20201124235801 37 321 0.0 2.0 0.00 0.00 0.00 59 1027.7
20201124235256 38 323 0.0 2.0 0.00 0.00 0.00 57 1027.7
20201124234755 38 271 2.0 5.0 0.00 0.00 0.00 57 1027.7
20201124234229 38 271 2.0 5.0 0.00 0.00 0.00 56 1027.7
20201124233724 38 275 0.0 4.0 0.00 0.00 0.00 55 1027.7
20201124233224 38 290 0.0 2.0 0.00 0.00 0.00 56 1027.7
20201124232712 39 290 1.0 2.0 0.00 0.00 0.00 54 1027.6
20201124232208 39 290 1.0 3.0 0.00 0.00 0.00 54 1027.6
20201124231710 39 290 2.0 4.0 0.00 0.00 0.00 53 1027.6
20201124231206 39 257 2.0 4.0 0.00 0.00 0.00 53 1027.5
20201124230656 39 281 2.0 5.0 0.00 0.00 0.00 53 1027.5
20201124230154 39 269 2.0 5.0 0.00 0.00 0.00 53 1027.5
20201124225659 40 271 2.0 4.0 0.00 0.00 0.00 52 1027.4
20201124225146 40 261 2.0 5.0 0.00 0.00 0.00 52 1027.4
20201124224625 40 255 2.0 5.0 0.00 0.00 0.00 52 1027.4
20201124224125 40 271 2.0 5.0 0.00 0.00 0.00 51 1027.1
20201124223626 40 266 3.0 5.0 0.00 0.00 0.00 51 1027.1
20201124223127 40 282 3.0 5.0 0.00 0.00 0.00 51 1027.1
20201124222624 40 271 3.0 5.0 0.00 0.00 0.00 50 1027.0
20201124222129 41 265 3.0 7.0 0.00 0.00 0.00 50 1027.0
20201124221626 41 300 3.0 7.0 0.00 0.00 0.00 50 1027.0
20201124221126 41 300 3.0 6.0 0.00 0.00 0.00 50 1026.6
20201124220624 41 268 3.0 5.0 0.00 0.00 0.00 49 1026.6
20201124220124 41 288 3.0 6.0 0.00 0.00 0.00 49 1026.6
20201124215620 41 246 3.0 6.0 0.00 0.00 0.00 49 1026.3
20201124215114 42 283 3.0 5.0 0.00 0.00 0.00 48 1026.3
20201124214621 42 295 4.0 6.0 0.00 0.00 0.00 48 1026.3
20201124214119 42 291 3.0 6.0 0.00 0.00 0.00 48 1026.0
20201124213615 42 283 3.0 6.0 0.00 0.00 0.00 48 1026.0
20201124213110 42 294 3.0 5.0 0.00 0.00 0.00 47 1026.0
20201124212612 42 238 2.0 5.0 0.00 0.00 0.00 47 1025.6
20201124212111 42 271 2.0 7.0 0.00 0.00 0.00 47 1025.6
20201124211608 43 289 1.0 7.0 0.00 0.00 0.00 47 1025.6
20201124211108 43 346 1.0 3.0 0.00 0.00 0.00 46 1025.2
20201124210606 43 5 4.0 9.0 0.00 0.00 0.00 46 1025.2
20201124210107 43 352 2.0 9.0 0.00 0.00 0.00 45 1025.2
20201124205608 43 5 2.0 9.0 0.00 0.00 0.00 46 1025.1
20201124205106 44 284 2.0 6.0 0.00 0.00 0.00 47 1025.1
20201124204608 44 24 2.0 6.0 0.00 0.00 0.00 46 1025.1
20201124204109 44 313 3.0 8.0 0.00 0.00 0.00 46 1025.1
20201124203605 44 20 3.0 8.0 0.00 0.00 0.00 45 1025.1
20201124203114 44 287 3.0 8.0 0.00 0.00 0.00 45 1025.1
20201124202609 44 352 3.0 8.0 0.00 0.00 0.00 46 1024.8
20201124202107 44 259 4.0 7.0 0.00 0.00 0.00 46 1024.8
20201124201553 44 300 4.0 8.0 0.00 0.00 0.00 46 1024.8
20201124201054 44 5 4.0 8.0 0.00 0.00 0.00 45 1024.8
20201124200553 44 270 4.0 8.0 0.00 0.00 0.00 45 1024.8
20201124200054 45 270 4.0 9.0 0.00 0.00 0.00 46 1024.8
20201124195553 45 28 4.0 11.0 0.00 0.00 0.00 45 1024.6
20201124195058 45 295 4.0 11.0 0.00 0.00 0.00 45 1024.6
20201124194610 45 273 4.0 11.0 0.00 0.00 0.00 44 1024.6
20201124194053 45 41 5.0 8.0 0.00 0.00 0.00 44 1024.6
20201124193551 45 282 5.0 8.0 0.00 0.00 0.00 45 1024.6
20201124193050 44 356 4.0 8.0 0.00 0.00 0.00 44 1024.6
20201124192537 44 356 4.0 8.0 0.00 0.00 0.00 44 1024.4
20201124192034 44 356 4.0 13.0 0.00 0.00 0.00 44 1024.4
20201124191448 45 0 4.0 13.0 0.00 0.00 0.00 45 1024.4
20201124190946 45 62 4.0 12.0 0.00 0.00 0.00 46 1024.4
20201124190446 44 42 4.0 8.0 0.00 0.00 0.00 46 1024.4
20201124185946 44 284 5.0 11.0 0.00 0.00 0.00 45 1024.4
20201124185448 44 298 5.0 11.0 0.00 0.00 0.00 45 1024.5
20201124184948 44 25 5.0 11.0 0.00 0.00 0.00 46 1024.5
20201124183947 44 280 5.0 11.0 0.00 0.02 0.00 46 1024.6
20201124183445 44 29 5.0 11.0 0.00 0.02 0.00 46 1024.6
20201124182945 44 283 5.0 10.0 0.00 0.02 0.00 46 1024.6
20201124182447 44 254 5.0 10.0 0.00 0.02 0.00 46 1024.4
20201124181943 44 353 5.0 11.0 0.00 0.02 0.00 47 1024.4
20201124181443 44 13 5.0 12.0 0.00 0.02 0.00 47 1024.4
20201124180943 44 278 5.0 14.0 0.00 0.02 0.00 47 1024.2
20201124180443 44 267 5.0 14.0 0.00 0.02 0.00 47 1024.2
20201124175942 44 294 6.0 12.0 0.00 0.02 0.00 47 1024.2
20201124175443 44 3 6.0 11.0 0.00 0.02 0.00 48 1024.1
20201124174943 44 231 5.0 11.0 0.00 0.02 0.00 49 1024.1
20201124174444 43 300 5.0 13.0 0.00 0.02 0.00 49 1024.1
20201124173943 43 296 5.0 13.0 0.00 0.02 0.00 50 1024.1
20201124173446 43 244 5.0 11.0 0.00 0.02 0.00 50 1024.1
20201124172945 43 4 5.0 12.0 0.00 0.02 0.00 50 1024.1
20201124172443 43 184 5.0 12.0 0.00 0.02 0.00 51 1024.0
20201124171942 43 57 5.0 11.0 0.00 0.02 0.00 51 1024.0
20201124171450 43 26 5.0 11.0 0.00 0.02 0.00 52 1024.0
20201124170943 43 274 7.0 11.0 0.00 0.02 0.00 52 1024.2
20201124170444 43 270 7.0 14.0 0.00 0.02 0.00 53 1024.2
20201124165944 43 263 9.0 17.0 0.00 0.02 0.00 53 1024.2
20201124165443 42 267 9.0 17.0 0.00 0.02 0.00 53 1024.1
20201124164945 42 320 6.0 18.0 0.00 0.02 0.00 53 1024.1
20201124164441 43 307 6.0 20.0 0.00 0.02 0.00 53 1024.1
20201124163943 43 297 6.0 20.0 0.00 0.02 0.00 53 1024.3
20201124163443 43 270 6.0 15.0 0.00 0.02 0.00 54 1024.3
20201124162942 42 312 5.0 15.0 0.00 0.02 0.00 54 1024.3
20201124162443 42 358 5.0 10.0 0.00 0.02 0.00 54 1024.5
20201124161942 42 6 4.0 13.0 0.00 0.02 0.00 55 1024.5
20201124161449 42 325 4.0 13.0 0.00 0.02 0.00 56 1024.5
20201124160940 42 109 5.0 11.0 0.00 0.02 0.00 57 1024.6
20201124160439 42 255 5.0 11.0 0.00 0.02 0.00 57 1024.6
20201124155942 42 280 6.0 13.0 0.00 0.02 0.00 57 1024.6
20201124155441 42 279 6.0 13.0 0.00 0.02 0.00 57 1024.6
20201124154936 42 289 7.0 12.0 0.00 0.03 0.00 57 1024.6
20201124154438 42 329 7.0 21.0 0.00 0.05 0.00 58 1024.6
20201124153937 41 292 6.0 21.0 0.00 0.05 0.00 58 1024.7
20201124153438 41 233 6.0 15.0 0.00 0.05 0.00 58 1024.7
20201124152936 41 292 6.0 17.0 0.00 0.06 0.00 58 1024.7
20201124152438 41 229 6.0 17.0 0.00 0.06 0.00 59 1024.8
20201124151938 41 285 9.0 13.0 0.00 0.06 0.00 60 1024.8
20201124151437 41 256 9.0 20.0 0.00 0.07 0.00 61 1024.8
20201124150939 41 266 4.0 20.0 0.00 0.08 0.00 60 1024.7
20201124150436 41 292 4.0 15.0 0.00 0.08 0.00 61 1024.7
20201124145938 41 305 5.0 7.0 0.00 0.10 0.00 62 1024.7
20201124145439 41 16 5.0 11.0 0.00 0.12 0.00 62 1024.3
20201124144936 41 295 6.0 20.0 0.00 0.14 0.00 62 1024.3
20201124144447 41 357 6.0 20.0 0.00 0.16 0.00 61 1024.3
20201124143942 40 250 6.0 13.0 0.00 0.18 0.00 62 1024.1
20201124143437 40 263 6.0 17.0 0.00 0.20 0.00 64 1024.1
20201124142936 40 263 6.0 17.0 0.00 0.21 0.00 64 1024.1
20201124142436 40 283 6.0 14.0 0.00 0.22 0.00 66 1024.1
20201124141936 40 282 6.0 14.0 0.00 0.23 0.00 66 1024.1
20201124141437 40 301 6.0 14.0 0.00 0.24 0.00 67 1024.1
20201124140941 39 293 6.0 14.0 0.00 0.25 0.00 68 1023.9
20201124140439 39 273 6.0 14.0 0.00 0.27 0.00 68 1023.9
20201124135942 39 282 5.0 14.0 0.00 0.28 0.00 68 1023.9
20201124135442 39 301 5.0 12.0 0.00 0.29 0.00 69 1023.7
20201124134938 38 252 5.0 11.0 0.00 0.30 0.00 70 1023.7
20201124134440 38 261 5.0 11.0 0.00 0.31 0.00 71 1023.7
20201124133937 38 250 4.0 11.0 0.00 0.32 0.00 72 1023.6
20201124133438 38 293 4.0 11.0 0.00 0.32 0.00 72 1023.6
20201124132936 38 283 4.0 9.0 0.00 0.33 0.00 73 1023.6
20201124132437 37 283 4.0 7.0 0.00 0.34 0.00 74 1023.3
20201124131936 37 261 4.0 7.0 0.00 0.34 0.00 74 1023.3
20201124131437 37 313 4.0 7.0 0.00 0.35 0.00 75 1023.3
20201124130938 37 253 4.0 9.0 0.00 0.36 0.00 76 1023.0
20201124130436 36 251 4.0 9.0 0.00 0.36 0.00 77 1023.0
20201124125936 36 264 5.0 9.0 0.00 0.37 0.00 77 1023.0
20201124125437 36 285 5.0 10.0 0.00 0.37 0.00 78 1022.6
20201124124937 35 254 4.0 10.0 0.00 0.37 0.00 79 1022.6
20201124124438 35 275 4.0 8.0 0.00 0.37 0.00 79 1022.6
20201124123941 35 271 3.0 8.0 0.00 0.38 0.00 80 1022.5
20201124123442 35 252 3.0 7.0 0.00 0.38 0.00 80 1022.5
20201124122939 35 251 2.0 5.0 0.00 0.39 0.00 80 1022.5
20201124122440 35 273 2.0 5.0 0.00 0.42 0.00 80 1022.3
20201124121944 35 234 3.0 4.0 0.00 0.45 0.00 80 1022.3
20201124121443 35 239 3.0 4.0 0.00 0.49 0.00 79 1022.3
20201124120944 35 252 5.0 6.0 0.00 0.51 0.00 79 1022.0
20201124120437 35 253 5.0 11.0 0.00 0.54 0.00 79 1022.0
20201124115935 35 297 5.0 11.0 0.00 0.58 0.00 80 1022.0
20201124115438 34 261 5.0 11.0 0.00 0.60 0.00 80 1021.7
20201124114936 34 268 5.0 11.0 0.00 0.64 0.00 81 1021.7
20201124114436 34 270 5.0 9.0 0.00 0.66 0.00 82 1021.7
20201124113937 33 293 5.0 8.0 0.00 0.66 0.00 82 1021.4
20201124113437 33 264 5.0 9.0 0.00 0.67 0.00 82 1021.4
20201124112935 33 284 4.0 9.0 0.00 0.68 0.00 82 1021.4
20201124112441 33 262 4.0 8.0 0.00 0.69 0.00 82 1021.1
20201124111935 33 274 4.0 7.0 0.00 0.69 0.00 82 1021.1
20201124111434 33 266 4.0 6.0 0.00 0.69 0.00 83 1021.1
20201124110930 33 261 4.0 6.0 0.00 0.69 0.00 83 1020.9
20201124110434 33 266 4.0 8.0 0.00 0.70 0.00 84 1020.9
20201124105930 32 262 3.0 8.0 0.00 0.72 0.00 84 1020.9
20201124105429 31 252 3.0 5.0 0.00 0.72 0.00 85 1020.6
20201124104428 31 262 2.0 4.0 0.00 0.72 0.00 84 1020.6
20201124103929 32 237 2.0 4.0 0.00 0.72 0.00 83 1020.4
20201124103427 32 253 2.0 4.0 0.00 0.72 0.00 82 1020.4
20201124102923 32 209 2.0 4.0 0.00 0.72 0.00 82 1020.4
20201124102422 33 237 2.0 3.0 0.00 0.72 0.00 81 1019.9
20201124101919 33 250 2.0 3.0 0.00 0.72 0.00 81 1019.9
20201124101419 33 157 2.0 4.0 0.00 0.72 0.00 80 1019.9
20201124100918 34 139 3.0 4.0 0.00 0.73 0.00 79 1019.7
20201124100406 34 141 3.0 5.0 0.00 0.73 0.00 78 1019.7
20201124095901 34 124 2.0 5.0 0.00 0.73 0.00 77 1019.7
20201124095358 35 131 2.0 3.0 0.00 0.73 0.00 76 1019.7
20201124094855 35 134 2.0 4.0 0.00 0.74 0.00 76 1019.7
20201124094358 35 260 2.0 5.0 0.00 0.74 0.00 75 1019.7
20201124093856 35 268 2.0 6.0 0.00 0.75 0.00 75 1019.4
20201124093355 35 243 2.0 6.0 0.00 0.75 0.00 75 1019.4
20201124092850 35 251 2.0 6.0 0.00 0.75 0.00 75 1019.1
20201124092355 35 256 2.0 6.0 0.00 0.75 0.00 75 1019.1
20201124091845 35 209 4.0 6.0 0.00 0.75 0.00 75 1019.1
20201124091345 35 282 4.0 5.0 0.00 0.75 0.00 75 1018.9
20201124090844 35 293 5.0 9.0 0.00 0.76 0.00 75 1018.9
20201124090344 35 280 5.0 9.0 0.00 0.76 0.00 75 1018.9
20201124085847 35 263 5.0 8.0 0.00 0.76 0.00 75 1018.9
20201124085343 35 263 5.0 8.0 0.00 0.76 0.00 75 1018.9
20201124084846 35 279 5.0 8.0 0.00 0.76 0.00 75 1018.9
20201124084343 36 281 5.0 8.0 0.00 0.76 0.00 75 1018.6
20201124083844 36 296 5.0 11.0 0.00 0.76 0.00 75 1018.6
20201124083345 36 268 5.0 11.0 0.00 0.76 0.00 74 1018.6
20201124082844 36 266 6.0 11.0 0.00 0.76 0.00 74 1018.5
20201124082345 36 238 6.0 10.0 0.00 0.76 0.00 74 1018.5
20201124081844 36 261 6.0 11.0 0.00 0.77 0.00 74 1018.5
20201124081347 36 257 6.0 11.0 0.00 0.77 0.00 74 1018.4
20201124080849 36 260 7.0 11.0 0.00 0.77 0.00 74 1018.4
20201124080346 36 259 7.0 11.0 0.00 0.77 0.00 74 1018.4
20201124075848 36 270 7.0 12.0 0.00 0.77 0.00 74 1018.2
20201124075344 36 256 7.0 15.0 0.00 0.77 0.00 74 1018.2
20201124074858 36 278 7.0 15.0 0.00 0.77 0.00 74 1018.2
20201124074346 36 265 7.0 15.0 0.00 0.77 0.00 74 1018.0
20201124073848 36 289 6.0 11.0 0.00 0.77 0.00 74 1018.0
20201124073354 36 261 6.0 14.0 0.00 0.77 0.00 74 1018.0
20201124072844 36 260 5.0 14.0 0.00 0.77 0.00 73 1017.9
20201124072345 36 272 5.0 12.0 0.00 0.77 0.00 74 1017.9
20201124071845 36 305 5.0 12.0 0.00 0.77 0.00 74 1017.9
20201124071344 36 293 5.0 11.0 0.00 0.77 0.00 75 1017.9
20201124070852 35 272 3.0 12.0 0.00 0.77 0.00 75 1017.9
20201124070342 35 269 3.0 12.0 0.00 0.77 0.00 76 1017.9
20201124065845 35 268 2.0 6.0 0.00 0.77 0.00 76 1017.9
20201124065344 35 272 2.0 6.0 0.00 0.77 0.00 76 1017.9
20201124064844 35 239 2.0 6.0 0.00 0.77 0.00 76 1017.9
20201124064344 35 224 2.0 6.0 0.00 0.77 0.00 76 1018.0
20201124063853 35 256 2.0 4.0 0.00 0.77 0.00 76 1018.0
20201124063344 35 226 2.0 4.0 0.00 0.77 0.00 75 1018.0
20201124062841 35 238 2.0 4.0 0.00 0.77 0.00 75 1017.6
20201124062341 35 144 2.0 3.0 0.00 0.77 0.00 75 1017.6
20201124061854 35 21 2.0 4.0 0.00 0.77 0.00 74 1017.6
20201124061337 35 92 2.0 4.0 0.00 0.79 0.00 75 1017.3
20201124060812 35 13 2.0 4.0 0.00 0.79 0.00 75 1017.3
20201124060320 35 86 2.0 4.0 0.00 0.79 0.00 74 1017.3
20201124055804 35 107 2.0 6.0 0.00 0.79 0.00 74 1017.2
20201124055306 35 86 2.0 6.0 0.00 0.79 0.00 74 1017.2
20201124054804 35 88 2.0 4.0 0.00 0.79 0.00 74 1017.2
20201124054311 35 85 2.0 4.0 0.00 0.79 0.00 74 1017.3
20201124053801 35 350 2.0 4.0 0.00 0.79 0.00 75 1017.3
20201124053256 35 327 2.0 4.0 0.00 0.79 0.00 75 1017.3
20201124052757 35 127 1.0 3.0 0.00 0.79 0.00 74 1017.3
20201124052235 35 128 1.0 3.0 0.00 0.79 0.00 74 1017.3
20201124051737 35 130 0.0 3.0 0.00 0.79 0.00 73 1017.3
20201124051235 35 153 0.0 2.0 0.00 0.79 0.00 72 1017.1
20201124050722 35 153 1.0 3.0 0.00 0.79 0.00 72 1017.1
20201124050223 35 153 1.0 3.0 0.00 0.80 0.00 72 1017.1
20201124045722 36 117 2.0 4.0 0.00 0.80 0.80 71 1017.0
20201124045212 36 97 2.0 4.0 0.00 0.80 0.80 71 1017.0
20201124044716 36 110 2.0 4.0 0.00 0.80 0.80 71 1017.0
20201124044207 36 98 2.0 4.0 0.00 0.80 0.80 70 1016.9
20201124043703 36 100 2.0 4.0 0.00 0.80 0.80 70 1016.9
20201124043206 36 18 2.0 4.0 0.00 0.80 0.80 69 1016.9
20201124042705 37 19 0.0 4.0 0.00 0.80 0.80 70 1016.8
20201124042205 37 248 0.0 4.0 0.00 0.80 0.80 69 1016.8
20201124041659 37 247 2.0 5.0 0.00 0.80 0.80 68 1016.8
20201124041151 37 3 2.0 5.0 0.00 0.80 0.80 67 1016.8
20201124040650 37 15 2.0 4.0 0.00 0.80 0.80 67 1016.8
20201124040149 38 295 2.0 5.0 0.00 0.80 0.80 67 1016.8
20201124035650 38 20 3.0 5.0 0.00 0.80 0.80 67 1016.7
20201124035148 38 330 3.0 5.0 0.00 0.80 0.80 66 1016.7
20201124034648 38 25 2.0 5.0 0.00 0.81 0.80 66 1016.7
20201124034148 38 23 2.0 5.0 0.00 0.81 0.80 66 1016.5
20201124033646 38 1 3.0 6.0 0.00 0.81 0.80 66 1016.5
20201124033153 38 47 3.0 6.0 0.00 0.81 0.80 65 1016.5
20201124032650 38 355 4.0 10.0 0.00 0.81 0.80 65 1016.3
20201124032147 38 17 4.0 10.0 0.00 0.81 0.80 66 1016.3
20201124031652 38 38 4.0 8.0 0.00 0.81 0.80 65 1016.3
20201124031146 38 11 4.0 7.0 0.00 0.81 0.80 65 1016.3
20201124030645 38 14 3.0 9.0 0.00 0.81 0.80 66 1016.3
20201124030200 38 283 3.0 10.0 0.00 0.81 0.80 66 1016.3
20201124025645 39 20 4.0 10.0 0.00 0.81 0.80 66 1016.0
20201124025147 39 201 4.0 8.0 0.00 0.81 0.80 66 1016.0
20201124024647 39 3 2.0 8.0 0.00 0.81 0.80 66 1016.0
20201124024147 39 273 2.0 7.0 0.00 0.81 0.80 66 1016.0
20201124023647 39 33 4.0 11.0 0.00 0.81 0.80 66 1016.0
20201124023146 39 306 4.0 11.0 0.00 0.81 0.80 66 1016.0
20201124022647 39 339 4.0 9.0 0.00 0.81 0.80 65 1015.9
20201124022144 39 16 4.0 9.0 0.00 0.81 0.80 65 1015.9
20201124021645 39 8 5.0 13.0 0.00 0.81 0.80 65 1015.9
20201124021145 39 27 5.0 13.0 0.00 0.81 0.80 65 1015.7
20201124020644 39 283 5.0 11.0 0.00 0.81 0.80 65 1015.7
20201124020143 39 262 5.0 16.0 0.00 0.81 0.80 65 1015.7
20201124015645 39 13 4.0 16.0 0.00 0.81 0.80 65 1015.6
20201124015146 39 273 4.0 9.0 0.00 0.81 0.80 65 1015.6
20201124014642 39 248 4.0 7.0 0.00 0.81 0.80 65 1015.6
20201124014145 40 294 4.0 10.0 0.00 0.81 0.80 65 1015.6
20201124013648 40 269 4.0 10.0 0.00 0.81 0.80 65 1015.6